Location: Baia Mare
(47.6567°N, 23.5850°E)
Time: 08:09:47
(UTC+02:00)

ISS - Pass Details

Date: 23 September 2018
Orbit: 402 x 408 km, 51.6° (Epoch: 18 November)

Event Time Altitude Azimuth Distance (km) Brightness Sun altitude
Rises 20:22:14 0° 212° (SSW) 2,333 0.3 -10.9°
Reaches altitude 10° 20:24:32 10° 199° (SSW) 1,475 -0.9 -11.3°
Maximum altitude 20:27:19 25° 141° (SE) 865 -2.6 -11.8°
Enters shadow 20:28:30 21° 108° (ESE) 1,001 -2.5 -12.0°
